Theta_e
346 345 344 345 345 345 342 338 335 328 330 334 336 344 346 346 347 347 346 346 346 346 344 345 346 348 350 351 351 352 353 354 354 353 353 353 356 357
348 346 346 343 343 345 343 340 338 337 331 335 339 342 346 347 347 348 347 348 346 344 344 343 344 346 347 348 348 348 350 352 352 352 351 351 352 353
345 345 346 343 343 343 343 342 340 339 336 338 342 345 344 345 347 349 349 348 348 343 343 342 341 342 344 345 345 345 346 348 348 349 350 350 350 350
344 344 345 346 342 342 341 340 342 342 341 339 340 342 343 345 344 345 349 350 349 348 342 341 340 340 339 339 339 340 340 342 344 345 346 348 348 348
348 347 347 346 344 343 342 342 342 342 341 341 337 341 344 342 342 342 342 347 351 350 342 340 339 339 337 336 335 333 332 333 336 337 340 341 344 346
350 349 349 349 349 347 344 343 342 340 339 339 337 337 339 340 341 338 336 341 342 348 349 345 344 341 339 335 334 333 329 327 328 330 331 333 336 339
350 350 351 353 350 346 345 343 342 339 338 338 337 335 335 335 334 335 334 335 337 342 342 344 345 344 345 338 340 338 333 329 327 326 326 326 328 331
349 350 351 350 347 342 343 344 345 341 338 337 336 335 334 334 336 336 334 333 332 340 338 338 345 345 346 346 341 337 334 332 329 327 325 324 325 327
350 350 349 353 347 349 342 340 341 341 343 342 338 337 335 335 336 334 334 334 334 338 338 336 339 341 345 346 337 335 332 330 328 328 326 324 323 323
352 350 349 348 348 347 346 342 342 342 341 342 343 344 342 340 338 338 337 336 337 338 340 336 335 336 339 342 337 335 332 329 327 325 324 322 319 318
355 353 350 348 341 336 345 342 342 343 339 334 336 335 334 333 338 338 336 337 335 331 336 336 335 335 336 337 339 333 329 326 323 323 323 321 318 316
353 353 339 346 335 329 343 343 340 343 344 346 342 335 332 336 332 340 337 334 331 328 333 337 333 334 330 333 336 337 338 326 319 318 319 318 315 322
348 346 346 331 326 323 328 343 341 341 340 341 341 340 340 339 338 337 341 340 333 331 336 338 333 332 332 330 332 334 336 335 337 334 319 315 312 317
345 345 342 325 322 320 324 328 326 328 337 338 337 336 336 337 339 339 338 339 342 340 337 338 335 332 329 327 328 331 333 334 334 335 335 325 317 314
344 339 323 317 317 321 322 322 322 332 333 333 333 333 335 337 336 336 337 337 336 337 340 337 338 337 333 331 329 329 327 330 332 332 332 332 335 334
333 334 330 329 327 329 329 327 334 332 333 333 333 334 335 334 333 332 331 331 330 331 334 336 336 336 333 332 331 333 332 332 330 330 330 334 336 336
333 338 336 337 336 336 337 336 334 338 337 336 335 334 333 332 331 330 328 327 325 325 327 330 335 335 334 332 330 329 328 328 331 330 326 327 327 330
333 337 336 335 336 335 334 331 332 333 333 332 330 329 326 325 325 325 325 324 323 323 323 326 325 325 325 327 332 326 325 324 326 325 324 325 327 329
333 332 330 329 328 327 329 328 326 327 331 329 326 323 321 321 321 320 320 320 320 319 319 320 321 322 320 317 322 321 323 323 324 323 323 322 325 328
329 328 327 327 325 324 323 321 321 322 319 319 318 316 315 315 314 314 314 314 315 317 317 317 317 317 320 319 321 322 315 322 321 321 322 323 324 323
325 325 324 323 320 318 314 311 308 304 305 306 305 305 306 309 308 309 310 308 309 311 309 309 312 318 320 320 315 314 318 312 315 320 321 320 320 319
321 315 312 310 307 307 305 301 297 295 296 295 296 296 297 300 301 304 307 305 305 305 303 305 306 312 313 313 309 311 313 316 315 315 315 316 317 312
310 306 302 299 298 297 297 296 295 294 292 292 292 293 295 296 298 301 304 301 300 299 298 298 300 305 306 307 307 306 306 307 309 307 307 314 314 315
Wind_Speed
8 8 7 6 4 6 6 5 5 2 3 3 3 6 5 6 9 8 9 12 14 14 14 16 17 19 19 18 20 19 19 19 17 17 18 18 19 19
6 7 7 4 5 5 5 5 3 4 3 2 2 2 4 5 8 9 9 12 13 14 15 15 17 18 18 19 18 18 19 20 20 18 17 18 18 19
5 6 6 5 4 4 4 3 4 4 4 3 3 3 2 4 4 6 7 7 6 13 15 15 15 15 16 17 17 19 21 21 21 21 21 20 20 20
6 5 6 4 5 4 3 5 4 4 4 7 2 1 4 5 4 5 5 6 7 10 13 15 16 17 17 17 18 19 20 21 21 21 21 22 22 22
6 6 6 6 6 4 5 4 4 3 3 3 2 1 2 2 3 3 4 6 5 10 12 14 14 16 18 19 18 18 18 18 21 22 23 23 23 23
7 7 7 7 6 6 5 6 5 4 3 3 3 3 3 1 2 2 3 3 4 5 9 9 11 16 18 18 19 19 19 19 19 20 20 21 22 22
6 6 6 7 8 7 4 5 5 4 3 4 3 2 2 2 2 1 3 2 3 4 3 4 4 5 7 14 16 21 19 18 19 20 21 20 20 22
6 7 6 6 7 9 10 9 8 6 5 4 3 4 4 3 3 2 2 1 3 1 3 3 4 6 6 6 12 17 17 20 21 21 21 22 23 23
8 6 5 5 7 6 9 10 9 11 7 6 5 6 4 6 3 2 4 3 4 3 2 4 3 5 5 6 13 15 16 16 17 19 19 18 18 20
7 7 7 7 8 8 7 7 7 7 7 5 6 6 6 6 6 4 3 3 2 3 4 4 1 4 3 5 11 13 14 14 15 15 15 15 16 17
6 6 6 6 8 11 6 6 6 7 7 12 11 10 9 9 6 4 3 3 4 3 2 2 2 3 2 3 3 8 10 11 12 13 13 14 15 15
5 7 12 8 9 9 7 6 6 7 5 4 4 6 9 8 10 8 5 5 3 3 3 4 2 2 4 2 2 2 2 7 8 10 11 12 11 5
5 4 3 9 10 8 10 5 6 2 4 4 3 4 4 4 3 5 7 6 4 5 5 4 3 2 3 4 3 2 3 3 3 5 8 10 8 8
4 4 3 6 9 9 7 8 5 2 2 3 3 3 3 4 4 4 7 7 7 9 3 5 3 3 3 2 4 2 3 4 4 5 4 5 9 10
4 5 8 4 7 7 5 4 4 2 3 2 3 2 2 3 3 3 3 4 5 5 5 6 6 5 4 4 3 3 3 3 3 4 3 4 4 3
7 3 4 5 4 1 3 3 2 2 2 2 1 2 1 2 2 1 1 2 1 3 2 3 4 4 3 5 4 5 4 3 2 3 3 5 5 5
3 3 1 3 3 2 2 4 4 2 3 1 3 3 3 3 3 3 2 2 2 3 4 3 4 3 4 4 3 4 3 3 4 4 3 4 4 5
4 5 3 3 3 3 4 3 2 3 3 3 3 4 3 3 2 3 2 3 3 3 3 3 3 4 4 4 6 3 1 2 3 4 3 4 7 5
4 4 3 4 4 3 4 4 2 3 3 6 6 5 4 3 3 3 2 2 2 2 2 3 3 3 5 5 4 1 1 3 4 4 4 4 7 8
4 6 5 5 3 5 5 4 4 4 6 7 5 4 4 4 4 4 4 3 3 2 3 2 2 2 2 3 3 4 5 3 3 4 5 4 6 14
6 7 7 7 6 5 5 5 6 6 6 5 4 4 4 3 4 3 3 4 4 3 4 4 5 10 3 2 3 4 5 3 5 4 7 7 7 4
9 8 6 7 6 5 6 6 6 6 5 5 4 4 4 3 3 3 4 4 4 3 2 3 6 5 4 3 3 4 5 4 5 7 7 9 4 7
9 8 7 6 5 6 6 7 6 4 3 4 4 3 4 4 4 4 4 4 4 3 3 4 5 4 3 2 3 4 5 6 5 6 4 10 13 15
Wind_Direction
225 224 220 230 209 216 206 192 187 251 275 252 232 212 215 218 222 214 219 223 217 214 214 218 224 225 224 227 229 226 228 232 235 230 231 237 234 235
217 213 227 215 213 207 201 196 187 195 239 232 259 238 190 212 223 218 216 221 222 220 219 217 221 222 221 221 223 225 222 224 227 228 227 227 230 232
209 219 230 190 221 208 180 175 190 175 238 255 230 239 228 223 234 221 223 222 229 221 221 221 222 223 223 224 222 226 229 224 224 227 228 229 230 231
219 216 225 195 212 213 187 196 208 188 200 262 240 257 235 218 210 208 213 217 228 235 226 222 221 224 226 226 226 226 225 223 221 223 226 229 231 232
216 214 221 196 215 194 194 195 198 191 201 221 257 239 266 226 229 227 207 225 226 233 221 229 229 226 224 223 223 224 221 220 223 221 223 227 230 233
211 212 219 204 210 200 197 203 185 189 182 202 230 245 240 279 230 248 269 220 254 243 240 230 221 227 229 228 228 228 227 224 224 226 230 230 228 230
210 216 226 208 202 190 179 205 183 183 182 190 215 211 235 279 235 209 239 255 264 220 238 250 244 241 244 235 237 231 228 227 228 227 226 228 229 230
206 215 224 222 205 202 212 207 187 185 199 188 188 201 221 202 203 218 219 305 312 146 194 267 191 245 243 229 228 232 228 230 229 229 228 226 229 233
203 201 201 201 202 211 220 216 213 216 197 185 206 208 198 199 182 217 219 207 233 259 163 269 186 253 239 240 235 233 233 232 229 232 234 236 236 243
209 202 198 200 200 199 203 195 216 220 227 224 216 223 209 179 186 187 193 213 279 266 173 264 211 252 262 240 239 239 237 236 235 236 235 235 237 239
210 199 199 207 216 200 194 208 222 237 227 219 230 235 215 205 171 153 217 226 270 262 212 232 244 268 270 281 268 247 244 242 241 245 246 243 242 243
206 196 198 198 216 201 202 202 231 239 206 212 240 251 233 240 203 202 167 197 188 294 244 190 232 202 315 268 282 284 262 243 250 255 255 253 250 242
209 215 227 206 220 200 220 216 218 194 220 233 247 271 272 257 210 211 210 202 192 220 203 169 213 191 218 286 285 253 210 262 249 265 252 253 245 208
202 206 238 244 219 181 192 234 219 228 247 232 234 238 257 266 258 230 211 213 220 228 146 176 239 192 204 252 262 279 258 252 230 255 248 250 239 224
223 170 150 140 132 139 190 156 156 197 224 210 244 263 209 249 285 278 259 232 227 236 231 200 213 234 209 236 260 270 318 279 244 258 273 251 266 251
314 264 146 262 273 299 122 151 163 191 173 251 270 285 312 312 328 347 325 348 324 315 307 230 221 194 256 239 223 267 260 279 300 277 270 282 269 244
219 261 245 226 195 167 199 145 115 168 116 127 96 18 5 352 349 356 14 3 27 337 328 341 343 270 239 238 262 234 269 289 273 290 314 292 254 259
173 212 193 188 160 166 149 87 89 124 94 113 85 88 64 28 6 16 41 38 15 354 341 329 334 357 346 301 204 270 296 251 280 291 262 289 297 279
156 136 108 89 89 79 93 99 78 43 89 71 56 44 42 36 30 25 16 57 18 344 331 344 1 12 348 331 294 196 272 298 305 303 254 243 281 286
101 114 108 105 104 78 71 78 82 72 65 63 53 43 34 52 38 13 22 12 352 340 358 343 334 294 289 296 305 274 228 282 309 303 309 302 273 278
93 95 104 100 89 84 94 84 76 70 71 72 58 50 30 59 49 29 17 44 63 38 24 352 305 298 267 302 356 323 311 245 258 298 315 319 312 296
108 103 81 87 90 107 104 83 71 50 51 50 37 38 35 40 46 33 43 46 37 37 322 293 322 352 24 36 317 312 318 326 329 315 271 248 314 319
107 106 105 101 94 90 83 81 78 71 60 63 58 31 18 25 9 31 39 48 42 12 340 337 346 354 341 340 321 305 312 318 323 334 319 309 312 304